Regional Weather Roundup
Issued by NWS

Home | Current Version | Previous Version | Text Only | Print | Product List | Glossary Off
Versions: 1 2 3 4 5 6 7 8 9 10 11 12 13 14 15 16 17 18 19 20 21 22 23 24 25 26

000
ASUS45 KPSR 261610
RWRAZ

ARIZONA HOURLY REGIONAL WEATHER ROUNDUP
NATIONAL WEATHER SERVICE PHOENIX AZ
900 AM MST WED JUL 26 2017

NOTE: FAIR INDICATES FEW OR NO CLOUDS BELOW 12,000 FEET WITH NO
SIGNIFICANT WEATHER AND/OR OBSTRUCTIONS TO VISIBILITY.

AZZ001>003-036-261700-
NORTHWEST ARIZONA

CITY           SKY/WX    TMP DP  RH WIND       PRES   REMARKS
BULLHEAD CITY  PTSUNNY   88  68  51 N13       29.98R
KINGMAN        MOSUNNY   76  65  68 NE3       30.18R
$$

AZZ004>008-015-016-018-261700-
NORTH CENTRAL ARIZONA

CITY           SKY/WX    TMP DP  RH WIND       PRES   REMARKS
GRAND CANYON   SUNNY     69  57  65 SW8       30.39S
WILLIAMS       MOSUNNY   70  55  60 VRB5      30.40S
PRESCOTT       MOSUNNY   74  63  68 VRB3      30.29S
FLAGSTAFF      SUNNY     69  52  54 SW8       30.42S
PAYSON         SUNNY     79  57  47 CALM      30.32S
PAGE           SUNNY     75  61  61 VRB5      30.24R
$$

AZZ009>014-017-261700-
NORTHEAST ARIZONA

CITY           SKY/WX    TMP DP  RH WIND       PRES   REMARKS
WINSLOW        SUNNY     78  58  49 CALM      30.27F
SAINT JOHNS    SUNNY     74  62  66 CALM      30.32F
WINDOW ROCK    SUNNY     74  54  49 VRB3      30.38F
SHOW LOW       SUNNY     72  54  53 CALM      30.38F
$$

AZZ540-542>544-546-548-261700-
GREATER PHOENIX AREA

CITY           SKY/WX    TMP DP  RH WIND       PRES   REMARKS
PHOENIX        MOSUNNY   91  67  44 E7        29.98S
BUCKEYE        SUNNY     90  73  58 S3        29.99S
GLENDALE       PTSUNNY   91  66  43 CALM      30.01S
LUKE AFB       MOSUNNY   92  66  42 N5        29.98F
DEER VALLEY    PTSUNNY   92  66  42 S5        30.00F
SCOTTSDALE     MOSUNNY   91  65  41 CALM      30.02F
MESA-FALCON    SUNNY     90  70  51 N10       30.02S
MESA-GATEWAY   MOSUNNY   88  70  55 CALM      30.02S
CHANDLER       SUNNY     90  70  51 NE6       30.00S
$$

AZZ539-553-261700-
SOUTHWEST MARICOPA COUNTY AND PINAL COUNTY

CITY           SKY/WX    TMP DP  RH WIND       PRES   REMARKS
CASA GRANDE    SUNNY     89  68  49 CALM      30.03S
GILA BEND      FAIR      94  57  28 CALM      29.97S
$$

AZZ503-504-507>509-261700-
SOUTHEAST ARIZONA

CITY           SKY/WX    TMP DP  RH WIND       PRES   REMARKS
TUCSON         MOSUNNY   87  62  43 NW6       30.11F
DAVIS-MONTHAN  MOSUNNY   86  65  48 CALM      30.10S
RYAN FIELD     SUNNY     82  68  61 NW3       30.10F
NOGALES        MOSUNNY   78  64  61 W3        30.20R
SIERRA VISTA   MOSUNNY   78  58  50 W6        30.26R
DOUGLAS        SUNNY     81  65  58 E5        30.20S
SAFFORD        SUNNY     83  68  60 VRB5      30.12S
$$

AZZ532-261700-
SOUTHWEST ARIZONA

CITY           SKY/WX    TMP DP  RH WIND       PRES   REMARKS
YUMA           MOSUNNY   94  49  21 S7        29.92R
$$

CAZ041-043-047-048-061-525>527-560>570-261700-
SOUTHERN CALIFORNIA

CITY           SKY/WX    TMP DP  RH WIND       PRES   REMARKS
DOWNTOWN L.A.  SUNNY     73  63  70 CALM      30.01R
L.A. AIRPORT   PTSUNNY   71  64  78 W5        30.02R
SAN DIEGO      CLOUDY    73  65  75 N3        30.01F
BURBANK        SUNNY     71  60  68 S3        30.02S
ONTARIO        MOSUNNY   74  62  66 VRB3      30.02S
RIVERSIDE      SUNNY     72  64  76 SE3       30.02F
PALM SPRINGS   SUNNY     92  62  36 VRB3      29.96R
EL CENTRO NAS  SUNNY     90  55  30 N5        29.92S
IMPERIAL       SUNNY     89  60  37 VRB3      29.90R
BLYTHE         SUNNY     94  45  18 SE3       29.94R
NEEDLES        PTSUNNY   90  70  51 N9        29.99S
$$

NVZ020-UTZ003-261700-
SOUTHERN NEVADA-UTAH

CITY           SKY/WX    TMP DP  RH WIND       PRES   REMARKS
LAS VEGAS      PTSUNNY   83  66  56 E6        30.09R
SALT LAKE CITY PTSUNNY   74  63  68 S8        30.20R
$$

NMZ009-TXZ055-261700-
NEW MEXICO-WEST TEXAS

CITY           SKY/WX    TMP DP  RH WIND       PRES   REMARKS
ALBUQUERQUE    CLOUDY    80  57  45 VRB6      30.28S
EL PASO        MOSUNNY   87  64  46 NW5       30.15F
$$


........................KEY........................
SKY/WX - SKY CONDITION/WEATHER
TMP    - TEMPERATURE IN FAHRENHEIT
DP     - DEW POINT IN FAHRENHEIT
RH     - RELATIVE HUMIDITY IN PERCENT
WIND   - DIRECTION AND SPEED IN MILES PER HOUR (MPH)
VRB    - VARIABLE WIND DIRECTION
PRES   - MEAN SEA LEVEL PRESSURE IN INCHES OF MERCURY
         F - FALLING PRESSURE   R - RISING PRESSURE
         S - STEADY PRESSURE
VSB    - VISIBILITY IN MILES
HX     - HEAT INDEX IN FAHRENHEIT
WCI    - WIND CHILL INDEX IN FAHRENHEIT
TC     - TEMPERATURE IN CELSIUS WHICH IS ALSO KNOWN AS
         TEMPERATURE IN CENTIGRADE
AFB    - AIR FORCE BASE
         LUKE AFB IS LUKE AIR FORCE BASE
         DAVIS-MONTHAN IS DAVIS-MONTHAN AIR FORCE BASE
NAS    - NAVAL AIR STATION
         EL CENTRO NAS IS EL CENTRO NAVAL AIR STATION
N/A    - NOT AVAILABLE





USA.gov is the U.S. government's official web portal to all federal, state and local government web resources and services.